DELTA 1 DEB, 40763

Orbit data source: Space-Track

DELTA 1 DEB, 40763 is space debris in SSO originally from a launch on Thu, 29 Jul 1976 UTC launched from the Air Force Western Test Range (AFWTR). Debris objects in space refer to the collection of defunct objects orbiting the Earth. Examples of debris include non-operational satellites, rocket bodies, and fragments generated from explosions, collisions, or faulty payload assembly.

Loading next visibility...
Identifier
40763, 1976-077GG
Orbit
SSO
Country
Flag of USUS
Related business
Manufacturer
Unknown
Mission
Spacecraft
Bus & Motor
Unknown
Mass
Unknown
Launch date (UTC)
1976-07-29 (50 years ago)
Launch vehicle
Unknown
Launch site
Air Force Western Test Range (AFWTR)
Object type
Payload
Rocket body
Debris
Shape & HBR
Unknown shape, 0.1 m
Radar Cross Section
Medium (>0.1 m² and <1 m²)

Expand to show TLE details & history
Last TLE update: 2 weeks ago

TLE from 2 weeks ago
0 DELTA 1 DEB
1 40763U 76077GG  26158.66989442  .00000452  00000-0  28868-2 0  9992
2 40763 101.5697 137.9341 0023916 209.5384 150.4342 12.59241117 90923
Epoch: 2026-06-07T16:04Z
TLE epoch observation values (Epoch: 2026-06-07T16:04:38.877Z)
Latitude
-0.00004°
Longitude
0.70435°
Altitude
1,444.918 km
Speed
7.132 km/s
True Right ascension
09h 11m 44s
True Declination
0° 00' 00"
Sunlit
Object was in daylight at epoch
Visualization orbit readout
Latitude
Unknown
Longitude
Unknown
Altitude
Unknown
Speed
Unknown
Apparent Right ascension
Unknown
Apparent Declination
Unknown
Sunlit
N/A
Visualization observer readout
Local Sidereal Time
23:48:07
Azimuth
Unknown
Elevation
Unknown
Doppler factor
Unknown
Orbital elements
Apogee altitude
1,442.261 km
Perigee altitude
1,404.944 km
Semi-major axis
7,801.74 km
Eccentricity
0.00239
Inclination
101.5697°
RAAN
137.9341°
Arg. of periapsis
209.5384°
True anomaly
150.56908°
Mean anomaly
150.4342°
Eccentric anomaly
150.50167°
Mean motion
3.1496 °/min
Orbital period
114.3 mins
BSTAR
0.0028868
Loading maneuver chart data...
Computing Atmospheric mass density...
Loading historical data...
Loading historical data...
Loading historical data...
Loading historical data...
Loading historical data...
Loading historical data...
Loading historical data...

Documentation

Showing up to 5 results
|